Tracking 20710 objects as of 30-May-2020
HD Live streaming from Space Station
objects crossing your sky now

ZDPS 2B

Track ZDPS 2B now!
10-day predictions
ZDPS 2B is classified as:


NORAD ID: 40902
Int'l Code: 2015-049D
Perigee: 507.8 km
Apogee: 528.7 km
Inclination: 97.5 °
Period: 94.8 minutes
Semi major axis: 6889 km
RCS: Unknown
Launch date: September 19, 2015
Source: People's Republic of China (PRC)
Launch site: Taiyaun Space Center, China (TSC)
aabbcc
Your satellite tracking list
Your tracking list is empty




NASA's NSSDC Master Catalog

Two Line Element Set (TLE):
1 40902U 15049D   20151.12676642  .00001110  00000-0  57373-4 0  9999
2 40902  97.4607 154.3942 0015124  75.9386 349.1432 15.18251524259768
Source of the keplerian elements: AFSPC